Tracking 35237 objects as of 5-Sep-2026
HD Live streaming from Space Station
objects crossing your sky now

PEGASUS DEB


PEGASUS DEB is no longer on orbit


NORAD ID: 24360
Int'l Code: 1994-029PM
Launch date: May 19, 1994
Source: United States (US)
Launch site: AIR FORCE WESTERN TEST RANGE (AFWTR)
Decay date: 1997-04-22

Note: This is SATELLITE DEBRIS
Your satellite tracking list
Your tracking list is empty




NASA's NSSDC Master Catalog

Two Line Element Set (TLE):
1 24360U 94029PM  97111.82072143  .10794556  20088+0  66697-1 0  9994
2 24360 082.0546 241.9063 0050230 291.5582 069.3074 15.82297868 46576
Source of the keplerian elements: AFSPC